Regional Weather Roundup
Issued by NWS

Home | Current Version | Previous Version | Graphics & Text | Print | Product List | Glossary On
Versions: 1 2 3 4 5 6 7 8 9 10 11 12 13 14 15 16 17 18 19 20 21 22 23 24 25 26 27 28 29 30 31 32 33 34 35 36 37 38 39 40 41 42 43 44 45 46 47 48 49
000
ASUS43 KDMX 212307
RWRIA

WEATHER ROUNDUP FOR IOWA
NATIONAL WEATHER SERVICE DES MOINES IA
500 PM CST FRI NOV 21 2014

NOTE: "FAIR" INDICATES FEW OR NO CLOUDS BELOW 12,000 FEET WITH NO
SIGNIFICANT WEATHER AND/OR OBSTRUCTIONS TO VISIBILITY.

* - THESE STATIONS ARE NOT NWS STATIONS...THUS NOT UNDER NWS
QUALITY CONTROL.  THEY ALSO DO NOT REPORT WEATHER SUCH
AS PRECIPITATION OR FOG.

IAZ001>003-012>014-020>022-031>034-043>046-220000-
   NORTHWEST IOWA

CITY           SKY/WX    TMP DP  RH WIND       PRES   REMARKS
CARROLL *      MOCLDY    36  28  75 S9        30.06R WCI  29
CHEROKEE *     MOCLDY    34  28  80 S9        30.01S WCI  26
DENISON *      PTCLDY    36  28  75 S9        30.03S WCI  29
LE MARS *      CLEAR     36  27  69 S17G24    29.98F WCI  25
ORANGE CITY *  CLEAR     36  27  69 S17G23    29.95S WCI  25
SHELDON *      CLEAR     32  27  80 S22       29.94F WCI  19
SIOUX CITY     MOCLDY    36  26  67 S12       30.02R WCI  28
SPENCER        MOCLDY    32  25  75 S13       30.00S WCI  22
STORM LAKE *   CLEAR     32  27  80 S17       30.02S WCI  21
$$

IAZ055>058-069>071-079>083-090>094-220000-
   SOUTHWEST IOWA

CITY           SKY/WX    TMP DP  RH WIND       PRES   REMARKS
ATLANTIC *     CLOUDY    37  30  75 S10       30.07S WCI  30
AUDUBON *      PTCLDY    37  27  65 S8        30.06F WCI  31
CLARINDA *     MIX PCPN  37  30  75 SE8       30.11F WCI  31
COUNCIL BLFS * CLOUDY    37  30  75 S15       30.04S WCI  28
CRESTON *      CLOUDY    36  27  69 S14G20    30.10S WCI  27
HARLAN  *      CLOUDY    37  30  75 S9        30.09S WCI  31
LAMONI         CLOUDY    36  28  73 SE12      30.12S WCI  28
RED OAK *      CLOUDY    37  30  75 S10       30.09R WCI  30
SHENANDOAH *   CLOUDY    39  30  70 S13       30.10S WCI  32
$$

IAZ047>049-059>061-072>074-084-220000-
   CENTRAL IOWA

CITY           SKY/WX    TMP DP  RH WIND       PRES   REMARKS
AMES           CLOUDY    34  24  67 S12       30.10F WCI  25
ANKENY *       CLOUDY    37  25  60 S14       30.12F WCI  29
CHARITON *     CLOUDY    36  25  64 SE10G17   30.13F WCI  28
DES MOINES     CLOUDY    38  24  57 S18       30.12F WCI  28
GRINNELL*      CLOUDY    34  21  60 SE17      30.14F WCI  23
KNOXVILLE *    CLOUDY    36  21  55 S10       30.13F WCI  28
MARSHALLTOWN   CLOUDY    33  22  63 S16       30.12F WCI  23
PELLA *        CLOUDY    36  23  60 SE10      30.16F WCI  28
PERRY *        CLOUDY    37  30  75 S13       30.08F WCI  29
$$

IAZ004>006-015-016-023>025-035-036-220000-
   NORTH CENTRAL IOWA

CITY           SKY/WX    TMP DP  RH WIND       PRES   REMARKS
ALGONA *       CLEAR     30  25  80 S18       30.03F WCI  18
CLARION *      PTCLDY    30  25  80 SE12      30.07S WCI  21
ESTHERVILLE    MOCLDY    29  23  78 S23       29.98F WCI  15
FORT DODGE *   CLOUDY    34  25  69 S8G16     30.07S WCI  27
MASON CITY     MOCLDY    28  21  75 SE17      30.08F WCI  16
FOREST CITY *  CLEAR     30  25  80 S13       30.06F WCI  20
IOWA FALLS *   CLOUDY    32  25  74 SE12      30.10F WCI  23
$$

IAZ007>011-017>019-026>030-037>042-050>054-066-220000-
   NORTHEAST IOWA

CITY           SKY/WX    TMP DP  RH WIND       PRES   REMARKS
CEDAR RAPIDS   CLOUDY    33  17  51 SE9       30.17F WCI  25
CHARLES CITY * MOCLDY    28  19  69 SE10G17   30.12F WCI  19
CLINTON *      PTCLDY    30   7  37 S8        30.27F WCI  23
DECORAH *      PTCLDY    27  16  63 S8G16     30.13F WCI  18
DUBUQUE        PTCLDY    26  12  55 S10       30.20F WCI  16
MONTICELLO *   MOCLDY    30  16  55 SE9       30.20F WCI  22
OELWEIN *      CLOUDY    28  19  69 S13       30.16F WCI  18
WATERLOO       CLOUDY    31  20  63 SE14      30.14F WCI  21
$$

IAZ064-065-067-068-078-220000-
   EAST CENTRAL IOWA

CITY           SKY/WX    TMP DP  RH WIND       PRES   REMARKS
DAVENPORT      PTCLDY    33   6  32 S13       30.24F WCI  24
IOWA CITY      CLOUDY    34  16  47 SE10      30.22F WCI  26
MT. PLEASANT * CLOUDY    34  18  51 SE9       30.22F WCI  26
MUSCATINE *    CLOUDY    36  10  35 SE10      30.23F WCI  28
QUAD CITIES    MOCLDY    33   8  35 SE9       30.25F WCI  25
$$

IAZ062-063-075>077-085>089-095>099-220000-
   SOUTHEAST IOWA

CITY           SKY/WX    TMP DP  RH WIND       PRES   REMARKS
BURLINGTON     CLOUDY    36  15  42 S8        30.23F WCI  30
FAIRFIELD *    CLOUDY    36  18  48 SE13      30.20S WCI  27
FORT MADISON * CLOUDY    39  18  41 S9        30.23F WCI  33
KEOKUK *       CLOUDY    37  18  44 SE12      30.23S WCI  30
OSKALOOSA *    CLOUDY    34  21  60 SE10      30.18F WCI  26
CENTERVILLE *  CLOUDY    36  23  60 SE9       30.16F WCI  29
OTTUMWA        CLOUDY    35  20  54 SE13      30.17S WCI  26
WASHINGTON *   CLOUDY    36  18  48 S14       30.20F WCI  27
$$

ABBREVIATIONS USED IN REMARKS
   TC - TEMPERATURES IN CELSIUS
  WCI - WIND CHILL INDEX
   HX - HEAT INDEX
  VSB - VISIBILITY
$$



USA.gov is the U.S. government's official web portal to all federal, state and local government web resources and services.